EW1732 Weather Reports


Display with metric or nautical units.
time (UTC)temp
F
wind
direction
speed
MPH
gust
MPH
rain 1hr
in
rain 24hr
in
rain mn
in
humidity
%
barometer
mb
20221003040534 49 129 0.0 5.0 0.00 0.00 0.00 57 1023.5
20221003035503 49 75 0.0 4.0 0.00 0.00 0.00 56 1023.4
20221003034500 49 352 0.0 7.0 0.00 0.00 0.00 57 1023.4
20221003033458 49 128 0.0 4.0 0.00 0.00 0.00 57 1023.3
20221003032426 49 288 1.0 4.0 0.00 0.00 0.00 57 1023.2
20221003031432 49 151 0.0 3.0 0.00 0.00 0.00 57 1023.6
20221003030443 49 217 1.0 6.0 0.00 0.00 0.00 58 1023.8
20221003025439 49 124 0.0 7.0 0.00 0.00 0.00 58 1023.9
20221003024426 49 56 1.0 7.0 0.00 0.00 0.00 58 1023.9
20221003023421 49 359 1.0 5.0 0.00 0.00 0.00 58 1024.2
20221003021338 49 269 0.0 1.0 0.00 0.00 0.00 59 1024.3
20221003020331 49 71 0.0 6.0 0.00 0.00 0.00 58 1024.4
20221003014158 49 91 0.0 2.0 0.00 0.00 0.00 58 1024.2
20221003012042 49 82 0.0 1.0 0.00 0.00 0.00 57 1024.4
20221003011021 49 18 0.0 3.0 0.00 0.00 0.00 58 1024.2
20221003010013 49 91 0.0 3.0 0.00 0.00 0.00 56 1024.3
20221003005007 50 79 0.0 4.0 0.00 0.00 0.00 57 1023.9
20221003004031 50 58 0.0 4.0 0.00 0.00 0.00 55 1023.5
20221003003020 50 104 0.0 4.0 0.00 0.00 0.00 55 1023.4
20221003000939 50 127 1.0 8.0 0.00 0.00 0.00 55 1023.4
20221002235905 50 8 1.0 6.0 0.00 0.00 0.00 57 1023.2
20221002234917 51 78 0.0 3.0 0.00 0.00 0.00 61 1023.2
20221002233931 51 81 0.0 6.0 0.00 0.00 0.00 62 1023.2
20221002232954 51 94 0.0 6.0 0.00 0.00 0.00 62 1023.2
20221002231950 51 51 0.0 2.0 0.00 0.00 0.00 62 1023.1
20221002230932 51 287 1.0 6.0 0.00 0.00 0.00 61 1023.0
20221002225931 51 229 0.0 6.0 0.00 0.00 0.00 60 1022.8
20221002223725 52 148 1.0 7.0 0.00 0.00 0.00 61 1022.6
20221002222732 52 1 1.0 6.0 0.00 0.00 0.00 61 1022.3
20221002221735 52 234 1.0 9.0 0.00 0.00 0.00 62 1022.2
20221002220746 52 41 1.0 9.0 0.00 0.00 0.00 63 1022.3
20221002215733 52 157 0.0 3.0 0.00 0.00 0.00 64 1022.3
20221002214757 53 58 0.0 3.0 0.00 0.00 0.00 65 1022.1
20221002213750 53 113 0.0 2.0 0.00 0.00 0.00 67 1022.0
20221002212757 53 196 0.0 3.0 0.00 0.00 0.00 67 1022.2
20221002205421 53 31 0.0 5.0 0.00 0.00 0.00 63 1022.0
20221002204403 53 106 0.0 7.0 0.00 0.00 0.00 61 1022.0
20221002203352 53 116 1.0 7.0 0.00 0.00 0.00 63 1021.6
20221002202324 53 37 0.0 1.0 0.00 0.00 0.00 67 1021.6
20221002195049 53 90 1.0 3.0 0.00 0.00 0.00 63 1021.4
20221002194016 54 63 0.0 3.0 0.00 0.00 0.00 63 1021.8
20221002193033 54 73 0.0 3.0 0.00 0.00 0.00 62 1021.6
20221002190953 53 34 1.0 9.0 0.00 0.00 0.00 61 1021.5
20221002185940 54 242 0.0 4.0 0.00 0.00 0.00 62 1021.2
20221002185001 54 49 1.0 6.0 0.00 0.00 0.00 63 1021.3
20221002181809 54 74 1.0 6.0 0.00 0.00 0.00 62 1021.2
20221002175629 54 18 1.0 9.0 0.00 0.00 0.00 63 1021.1
20221002174647 55 307 0.0 5.0 0.00 0.00 0.00 65 1021.2
20221002173617 55 170 1.0 8.0 0.00 0.00 0.00 66 1021.0
20221002171502 55 134 1.0 6.0 0.00 0.00 0.00 69 1021.0
20221002170446 55 143 1.0 6.0 0.00 0.00 0.00 71 1021.1
20221002165458 55 8 2.0 7.0 0.00 0.00 0.00 71 1021.0
20221002164439 55 58 1.0 7.0 0.00 0.00 0.00 73 1020.8
20221002163408 55 303 1.0 6.0 0.00 0.00 0.00 72 1020.8
20221002162343 55 86 1.0 6.0 0.00 0.00 0.00 74 1020.6
20221002161333 54 312 1.0 8.0 0.00 0.00 0.00 75 1020.6
20221002160340 54 28 1.0 8.0 0.00 0.00 0.00 75 1020.7
20221002155333 54 240 1.0 7.0 0.00 0.00 0.00 76 1020.7
20221002153201 54 46 1.0 8.0 0.00 0.00 0.00 77 1020.4
20221002152226 54 94 2.0 8.0 0.00 0.00 0.00 77 1020.3
20221002151230 55 70 1.0 9.0 0.00 0.00 0.00 77 1020.0
20221002145142 55 136 2.0 9.0 0.00 0.00 0.00 77 1020.0
20221002144131 56 76 1.0 8.0 0.00 0.00 0.00 77 1019.8
20221002143145 55 148 2.0 9.0 0.00 0.00 0.00 78 1019.7
20221002142112 55 94 2.0 9.0 0.00 0.00 0.00 78 1019.6
20221002141055 55 96 1.0 7.0 0.00 0.00 0.00 80 1019.7
20221002140115 55 59 2.0 9.0 0.00 0.00 0.00 79 1019.6
20221002135109 55 292 1.0 11.0 0.00 0.00 0.00 79 1019.6
20221002134133 55 30 1.0 11.0 0.00 0.00 0.00 80 1019.6
20221002133109 55 138 1.0 4.0 0.00 0.00 0.00 80 1019.6
20221002132122 55 152 1.0 6.0 0.00 0.00 0.00 79 1019.7
20221002131144 55 126 1.0 9.0 0.00 0.00 0.00 79 1019.6
20221002130144 55 104 2.0 9.0 0.00 0.00 0.00 80 1019.4
20221002125124 55 148 1.0 8.0 0.00 0.00 0.00 80 1019.4
20221002124133 55 34 1.0 8.0 0.00 0.00 0.00 80 1019.3
20221002121919 55 35 1.0 6.0 0.00 0.00 0.00 80 1018.9
20221002114714 55 29 1.0 6.0 0.00 0.04 0.00 79 1018.4
20221002113649 55 120 1.0 5.0 0.00 0.06 0.00 80 1018.4
20221002112644 55 214 0.0 5.0 0.00 0.06 0.00 80 1018.3
20221002110512 55 67 0.0 5.0 0.00 0.09 0.00 80 1018.0
20221002104401 56 89 1.0 4.0 0.00 0.10 0.00 78 1017.6
20221002103333 56 64 1.0 4.0 0.00 0.10 0.00 76 1017.4
20221002102329 57 66 1.0 3.0 0.00 0.10 0.00 74 1017.5
20221002101341 57 359 0.0 3.0 0.00 0.10 0.00 74 1017.5
20221002100342 57 98 0.0 3.0 0.00 0.11 0.00 74 1017.4
20221002064801 58 213 0.0 2.0 0.00 0.13 0.00 56 1016.7
20221002063815 58 94 0.0 2.0 0.00 0.13 0.00 56 1016.6
20221002062740 59 84 0.0 4.0 0.00 0.13 0.00 54 1016.8
20221002061747 59 91 0.0 4.0 0.00 0.13 0.00 53 1016.7
20221002060754 59 79 1.0 4.0 0.00 0.13 0.00 53 1016.7
20221002055724 59 238 0.0 4.0 0.00 0.13 0.00 51 1016.5
20221002054715 58 127 0.0 2.0 0.00 0.13 0.00 50 1016.4
20221002053737 58 142 0.0 5.0 0.00 0.13 0.00 49 1016.3
20221002052720 58 72 0.0 7.0 0.00 0.13 0.00 48 1016.2
20221002051653 58 130 0.0 7.0 0.00 0.13 0.00 48 1016.2
20221002045509 58 217 0.0 4.0 0.00 0.13 0.00 50 1016.4
20221002043345 58 100 0.0 4.0 0.00 0.13 0.00 53 1016.3
20221002042359 58 102 0.0 3.0 0.00 0.13 0.00 54 1016.3